Dyess AFB, TX

8:47 AM CST on December 06, 2016 (GMT -0600)
Dyess Air Force Base

Weather History for KDYS - November, 2012

Change the Weather History Date:

Saturday, November 3, 2012

  Actual Average Record
Temperature  
Mean Temperature 64 °F -  
Max Temperature 71 °F 67 °F 87 °F (2003)
Min Temperature 56 °F 47 °F 27 °F (2011)
Degree Days  
Heating Degree Days 2    
Growing Degree Days 14 (Base 50)    
Moisture  
Dew Point 48 °F    
Average Humidity 60    
Maximum Humidity 85    
Minimum Humidity 45    
Precipitation  
Precipitation 0.00 in - - ()
Sea Level Pressure  
Sea Level Pressure 30.03 in    
Wind  
Wind Speed 9 mph (North)    
Max Wind Speed 15 mph    
Max Gust Speed -    
Visibility 10 miles    
Events      
Averages and records for this station are not official NWS values.
T = Trace of Precipitation, MM = Missing Value Source: NWS Daily Summary

Daily Weather History Graph

Daily Weather History Graph

Search for Another Location

Airport or City:

Trip Planner

Search our weather history database for the weather conditions in past years. The results will help you decide how hot, cold, wet, or windy it might be!

Date:

Astronomy

Nov. 03, 2012 Rise Set
Actual Time 7:58 AM CDT 6:46 PM CDT
Civil Twilight 7:33 AM CDT 7:12 PM CDT
Nautical Twilight 7:04 AM CDT 7:41 PM CDT
Astronomical Twilight 6:35 AM CDT 8:10 PM CDT
Moon 10:34 PM CDT (11/3) 11:58 AM CDT (11/3)
Length of Visible Light 11h 38m
Length of Day
10h 47m
Waning Gibbous, 80% of the Moon is Illuminated
Nov 3
Waning Gibbous
Nov 6
Last Quarter
Nov 13
New
Nov 20
First Quarter
Nov 28
Full

Hourly Weather History & Observations

Time (CDT) Temp. Dew Point Humidity Pressure Visibility Wind Dir Wind Speed Gust Speed Precip Events Conditions
12:55 AM 68.2 °F 52.7 °F 58% 29.90 in 10.0 mi South 9.2 mph - N/A   Clear
1:55 AM 66.7 °F 52.7 °F 61% 29.89 in 10.0 mi South 15.0 mph - N/A   Clear
2:55 AM 65.3 °F 53.1 °F 65% 29.89 in 10.0 mi South 12.7 mph - N/A   Clear
3:55 AM 65.5 °F 53.2 °F 65% 29.90 in 10.0 mi SSW 12.7 mph - N/A   Clear
4:55 AM 64.6 °F 54.3 °F 69% 29.91 in 10.0 mi South 6.9 mph - N/A   Clear
5:55 AM 62.8 °F 53.8 °F 72% 29.97 in 10.0 mi NNE 6.9 mph - N/A   Clear
6:55 AM 56.3 °F 51.8 °F 85% 30.01 in 10.0 mi NNE 5.8 mph - N/A   Clear
7:55 AM 56.3 °F 48.4 °F 75% 30.05 in 10.0 mi NW 8.1 mph - N/A   Clear
8:55 AM 56.1 °F 44.2 °F 64% 30.09 in 10.0 mi NNW 8.1 mph - N/A   Clear
9:55 AM 58.3 °F 44.2 °F 60% 30.10 in 10.0 mi North 9.2 mph - N/A   Clear
10:55 AM 59.9 °F 44.8 °F 57% 30.10 in 10.0 mi Variable 4.6 mph - N/A   Clear
11:55 AM 63.0 °F 45.7 °F 53% 30.10 in 10.0 mi North 5.8 mph - N/A   Clear
12:55 PM 64.6 °F 46.4 °F 52% 30.08 in 10.0 mi Variable 4.6 mph - N/A   Clear
1:55 PM 68.4 °F 47.8 °F 48% 30.06 in 10.0 mi North 4.6 mph - N/A   Clear
2:55 PM 70.9 °F 49.1 °F 46% 30.03 in 10.0 mi North 4.6 mph - N/A   Clear
3:55 PM 71.8 °F 50.2 °F 46% 30.02 in 10.0 mi NNW 8.1 mph - N/A   Clear
4:55 PM 71.4 °F 50.0 °F 47% 30.02 in 10.0 mi NNW 8.1 mph - N/A   Clear
5:55 PM 69.6 °F 47.7 °F 45% 30.02 in 10.0 mi NNE 12.7 mph - N/A   Clear
6:55 PM 66.0 °F 46.8 °F 50% 30.05 in 10.0 mi NNE 8.1 mph - N/A   Clear
7:55 PM 62.2 °F 45.7 °F 55% 30.07 in 10.0 mi NNE 6.9 mph - N/A   Partly Cloudy
8:55 PM 58.3 °F 45.9 °F 63% 30.09 in 10.0 mi North 5.8 mph - N/A   Scattered Clouds
9:55 PM 58.6 °F 44.6 °F 60% 30.10 in 6.0 mi NNW 4.6 mph - N/A   Haze
10:55 PM 56.5 °F 44.2 °F 64% 30.12 in 10.0 mi NW 4.6 mph - N/A   Clear
11:55 PM 56.1 °F 45.5 °F 68% 30.12 in 9.0 mi North 4.6 mph - N/A   Scattered Clouds